Location: Donald C. Martin Observatory
(38.3885°N, 82.3916°W)
Time: 11:52:02
(UTC-04:00)

Cosmos 1484 Rocket - Visible Passes

Search period start: 30 September 2014 00:00
Search period end: 10 October 2014 00:00
Orbit: 516 x 572 km, 97.4° (Epoch: 29 September)

Date Brightness Start Highest point End Pass type
(mag) Time Alt. Az. Time Alt. Az. Time Alt. Az.
30 Sep 2.9 20:34:39 27° SE 20:36:28 50° ENE 20:40:20 10° N visible
30 Sep 6.0 22:10:49 10° W 22:11:25 10° W 22:12:01 10° W visible
01 Oct 3.2 20:28:46 26° SE 20:30:29 42° ENE 20:34:16 10° N visible
01 Oct 5.8 22:04:22 12° WSW 22:05:21 12° W 22:07:02 10° WNW visible
02 Oct 3.4 20:22:52 25° ESE 20:24:30 36° ENE 20:28:11 10° N visible
02 Oct 5.6 21:58:28 14° WSW 21:59:16 15° W 22:01:32 10° WNW visible
03 Oct 3.6 20:16:58 23° ESE 20:18:31 31° ENE 20:22:03 10° N visible
03 Oct 5.4 21:52:34 17° WSW 21:53:12 17° W 21:55:53 10° NW visible
04 Oct 3.8 20:11:03 21° ESE 20:12:32 26° ENE 20:15:54 10° NNE visible
04 Oct 5.2 21:46:39 20° WSW 21:47:08 20° W 21:50:09 10° NW visible
05 Oct 4.0 20:05:09 19° E 20:06:33 23° ENE 20:09:43 10° NNE visible
05 Oct 5.0 21:40:45 24° WSW 21:41:04 24° W 21:44:20 10° NW visible
06 Oct 4.2 19:59:14 17° E 20:00:34 20° ENE 20:03:30 10° NNE visible
06 Oct 4.7 21:34:50 28° W 21:34:59 28° W 21:38:29 10° NW visible
07 Oct 4.4 19:53:19 15° E 19:54:35 17° ENE 19:57:13 10° NNE visible
07 Oct 4.4 21:28:55 33° W 21:28:55 33° W 21:32:35 10° NNW visible
08 Oct 4.6 19:47:24 13° E 19:48:36 15° ENE 19:50:52 10° NNE visible
08 Oct 4.1 21:23:00 39° W 21:23:00 39° W 21:26:39 10° NNW visible
09 Oct 4.7 19:41:28 12° E 19:42:37 13° ENE 19:44:24 10° NE visible
09 Oct 3.8 21:17:05 46° W 21:17:05 46° W 21:20:42 10° NNW visible
